Torna al catalogo

CZ-3C R/B

AttivoHEO
NORAD 34780·ROCKET BODY·🇨🇳 China

Lanciato Apr 14, 2009 da Xichang Satellite Launch Center

Loading…

Prossimi Passaggi (prossime 24 ore)

TLE

AggiornatoSource: Space-Track

Epoca: Sep 8, 2026, 19:51 UTC

1 34780U 09018B   26251.82739439  .00001744  00000-0  10023-2 0  9995
2 34780  20.8566 319.9435 7021932 259.3142  21.1835  2.58761719153640

Traccia CZ-3C R/B in tempo reale con AllMySat

Download on the App Store